Theta_e
348 347 347 350 351 351 354 357 358 356 355 354 355 355 355 355 356 356 356 358 359 361 360 356 357 358 359 357 354 350 345 342 345 345 348 352 354 355 354 353 351 351 351 350 349 349 347 346 344 342 341 341 341 340 339 337 335 335 336 334 333 335 336
347 348 346 348 352 352 354 356 357 357 356 355 355 355 356 356 356 355 357 359 359 360 360 359 358 358 359 360 359 355 348 342 344 344 346 351 352 353 354 353 352 350 350 350 349 348 347 345 343 342 342 341 340 340 339 337 335 335 337 336 334 334 335
347 351 349 348 352 354 355 355 356 357 357 357 356 356 356 356 355 355 357 359 359 359 361 362 360 358 358 359 359 358 352 345 343 342 345 349 350 352 354 353 351 350 349 349 348 347 347 345 343 343 342 340 340 340 339 339 337 336 336 337 336 335 335
342 348 349 349 351 355 356 355 355 357 356 356 356 356 356 356 355 356 357 359 359 360 361 362 362 360 358 358 358 359 357 349 343 340 344 348 350 352 353 352 350 349 349 348 347 347 345 344 344 342 341 340 341 341 339 339 338 337 337 336 336 336 335
339 342 346 350 353 356 358 356 355 356 356 355 355 355 357 357 357 358 358 358 359 360 361 361 361 360 360 358 357 359 359 353 344 342 344 347 351 353 352 351 351 349 349 347 345 342 338 337 337 336 337 339 340 340 339 338 338 337 337 336 336 336 336
338 342 348 351 353 356 360 358 355 355 355 355 354 355 357 358 357 358 359 358 358 360 362 362 361 361 361 360 358 359 360 355 347 344 344 347 352 353 351 351 350 349 349 346 341 339 335 331 328 327 331 335 337 338 339 339 336 333 336 337 336 336 336
338 344 348 350 352 357 360 358 356 355 354 354 355 357 358 356 354 355 357 358 356 358 362 362 360 360 361 361 360 359 359 358 351 344 345 349 352 353 351 351 349 348 348 343 337 336 334 329 324 322 323 325 328 330 334 336 331 326 331 335 336 336 336
338 344 347 348 351 355 358 359 356 354 353 353 353 356 356 353 352 353 356 357 355 356 360 360 358 359 361 361 361 359 358 359 355 347 347 350 351 352 351 349 346 344 344 340 334 331 328 325 325 324 322 320 320 321 326 330 326 321 324 330 333 336 337
338 344 347 349 349 352 356 358 356 354 353 351 351 352 353 352 352 352 354 356 354 354 356 356 354 356 360 362 362 360 358 359 356 351 349 350 352 351 349 345 343 341 340 337 332 328 325 325 325 326 325 322 319 319 321 323 323 321 320 322 326 331 334
343 345 346 349 349 350 353 357 357 354 352 350 347 349 352 352 351 351 352 352 352 352 353 352 351 353 357 362 363 362 360 357 356 354 350 348 349 348 346 344 341 339 337 334 330 327 326 326 324 325 326 325 322 320 320 321 322 322 321 320 320 323 329
343 343 349 354 353 352 354 356 357 355 352 349 345 347 351 352 351 350 350 349 349 351 351 350 350 350 354 361 363 363 362 359 358 356 350 347 349 347 344 343 341 338 336 332 328 326 327 327 326 325 326 328 326 322 320 321 321 322 321 321 322 321 326
339 339 345 354 358 357 355 356 357 355 352 349 346 346 350 352 351 349 349 349 348 349 350 352 352 350 351 359 363 363 362 361 360 355 344 346 354 351 344 343 342 338 334 330 328 326 326 328 328 326 325 328 329 326 322 321 322 324 321 322 328 327 324
339 341 348 357 360 360 359 357 357 357 353 351 349 348 349 352 352 349 348 350 349 348 351 354 354 350 348 354 359 360 361 362 360 353 341 345 352 350 346 344 340 334 330 329 329 327 327 328 328 327 325 326 327 327 325 321 322 326 323 322 329 329 323
339 345 356 364 362 360 361 359 357 357 357 355 353 351 351 353 355 352 349 351 351 350 353 354 353 351 349 351 354 356 359 361 361 355 346 346 348 345 345 344 338 332 327 328 329 327 326 328 328 328 327 326 327 327 327 324 322 326 326 322 323 324 323
341 349 358 364 364 363 362 360 359 359 359 360 356 355 355 356 357 356 352 352 353 353 353 353 352 354 353 351 352 353 357 362 363 359 353 348 346 341 341 342 338 332 327 328 331 330 327 327 328 328 328 328 328 328 328 327 322 324 326 323 321 323 324
337 346 353 355 359 363 362 360 361 360 361 364 362 360 362 360 359 358 356 356 357 356 355 353 355 358 356 353 350 350 356 363 364 362 357 352 348 343 341 341 338 333 329 330 336 337 331 326 327 328 329 328 327 327 328 327 323 323 324 324 324 325 326
334 337 339 340 350 361 363 363 365 366 367 368 366 365 365 363 362 362 361 362 362 360 357 356 359 362 360 358 355 355 361 365 365 363 360 356 353 350 347 345 343 340 335 334 340 339 332 326 327 328 328 328 327 326 326 326 326 326 323 323 325 326 326
334 334 334 338 348 360 364 364 367 372 372 370 368 367 366 366 366 365 364 365 364 363 360 360 363 364 362 360 359 361 365 367 365 364 361 358 357 355 354 353 352 350 347 345 344 338 330 326 326 326 326 327 325 325 328 328 329 329 325 324 326 326 325
336 332 335 344 348 356 364 366 369 374 374 371 369 369 367 367 368 367 366 366 366 365 363 363 366 367 365 363 362 364 366 366 366 364 361 358 358 357 357 356 355 354 353 350 344 336 331 328 326 325 325 324 325 328 330 331 331 331 327 325 327 327 326
333 331 339 348 349 352 361 366 368 371 374 373 369 369 370 370 370 369 368 367 368 366 364 366 369 370 369 367 366 366 365 364 364 361 360 359 358 358 358 356 355 355 353 350 344 337 333 329 327 325 324 325 328 329 331 332 333 332 329 326 325 326 327
334 340 347 351 351 353 361 366 365 368 373 372 369 370 371 371 372 370 367 367 369 368 366 368 371 371 368 366 365 365 364 362 361 360 359 359 359 358 357 355 355 355 353 350 342 336 332 328 327 327 327 328 330 330 331 334 334 333 330 326 324 325 328
337 345 349 351 355 357 360 361 362 366 369 369 368 370 371 372 372 368 365 367 370 370 369 370 371 370 368 366 365 364 363 362 361 360 359 359 358 358 357 355 355 354 353 350 342 335 333 331 330 331 331 330 329 329 332 335 334 331 329 327 326 327 330
337 340 343 347 354 358 358 358 362 368 370 369 369 370 372 372 369 367 368 370 372 372 372 371 371 369 368 366 365 364 363 361 360 359 359 359 358 357 355 354 353 352 351 349 345 340 338 336 335 334 332 331 331 331 333 336 335 332 330 331 329 328 330
337 336 340 347 352 358 360 361 364 368 368 369 369 370 371 371 371 371 371 371 373 373 372 371 370 369 368 366 364 361 358 356 358 359 358 357 355 353 352 351 350 350 349 347 346 344 342 340 339 336 334 335 336 336 335 336 336 333 332 334 331 328 330
339 337 343 348 352 359 362 361 363 366 367 368 369 370 371 370 370 371 370 372 373 371 371 371 367 364 364 361 358 356 351 351 357 358 355 353 351 350 350 349 349 349 347 346 346 345 342 341 340 338 338 338 339 339 338 338 337 334 334 335 332 328 329
341 340 344 347 352 359 362 362 364 365 366 366 366 367 368 368 370 371 371 373 372 369 372 369 358 350 351 350 351 352 349 348 353 353 350 349 350 351 350 348 348 348 346 344 344 344 343 342 341 340 340 340 340 340 339 338 337 336 336 334 332 330 330
345 345 347 352 356 361 363 363 364 363 363 364 364 365 367 368 369 371 370 370 370 369 367 359 343 336 337 337 341 344 343 347 351 351 349 350 351 351 349 347 347 345 343 344 344 343 343 343 342 341 340 340 339 339 338 337 336 336 335 332 331 330 328
349 348 350 355 358 360 361 360 360 361 361 363 363 365 367 369 370 371 370 369 367 361 350 338 333 333 335 336 336 338 344 350 352 352 351 352 352 351 348 347 346 341 338 341 343 341 341 341 339 338 338 337 337 336 336 335 334 334 334 331 329 328 325
351 352 356 360 359 360 360 360 362 365 365 365 364 365 367 365 362 362 361 360 354 343 334 332 333 334 335 337 339 345 350 352 352 352 352 352 352 349 347 347 345 338 334 339 341 339 338 338 336 336 336 335 335 335 334 334 333 332 331 329 326 325 324
357 357 359 359 358 359 360 360 362 363 361 358 356 355 352 345 339 341 347 349 344 335 332 333 334 334 336 337 341 348 351 352 351 352 353 352 350 348 346 345 343 336 334 336 337 336 337 338 336 335 335 334 335 335 334 334 333 330 327 325 323 325 327
355 354 354 355 358 361 362 362 363 362 361 359 356 352 346 337 337 346 354 354 348 338 333 333 334 334 335 336 342 348 350 350 350 351 351 350 349 348 346 343 340 335 333 333 334 336 337 338 337 336 335 334 334 334 334 334 332 329 325 324 325 327 328
348 348 349 351 353 356 357 359 360 361 362 362 360 357 353 350 349 350 350 347 342 336 334 335 334 335 338 343 347 348 349 350 349 349 350 349 348 347 345 342 339 336 333 332 334 336 337 338 336 335 334 333 332 333 333 333 333 331 329 327 326 327 328
349 347 347 347 347 348 350 352 353 353 353 353 352 350 350 352 352 344 338 337 337 336 336 336 335 340 347 350 350 350 350 350 348 347 347 347 346 346 344 341 338 336 334 334 335 336 337 336 334 333 332 332 332 332 333 334 334 333 332 329 326 327 329
354 351 347 345 345 346 347 348 349 350 352 353 353 350 347 348 347 340 337 339 338 336 337 340 343 347 350 350 350 350 349 348 346 345 345 344 344 343 341 339 337 337 337 336 335 336 336 334 333 332 332 332 332 332 333 334 335 335 335 331 327 327 328
353 352 350 346 343 343 346 348 349 349 349 351 352 351 349 349 349 347 348 350 349 346 345 347 349 350 349 349 349 348 348 346 345 344 344 343 342 340 340 338 337 337 338 337 336 336 336 335 335 334 333 333 333 333 333 334 335 335 334 330 326 325 326
348 350 350 349 345 342 340 341 341 340 342 346 347 347 348 351 353 353 353 354 354 351 351 351 350 349 348 347 347 346 346 345 344 344 343 342 341 339 339 338 338 338 338 337 336 335 335 335 335 335 333 333 333 333 332 332 332 331 329 327 326 327 326
345 347 348 349 349 347 343 339 336 334 336 341 343 346 351 354 355 354 353 353 353 352 352 351 349 348 348 347 346 346 345 344 343 343 342 341 340 339 338 338 338 337 337 336 335 334 333 332 332 333 333 333 332 331 329 328 328 329 329 329 329 328 327
340 343 344 346 348 348 347 346 344 342 341 340 338 342 348 350 351 352 352 351 352 352 350 349 349 349 348 347 346 345 344 343 343 342 341 341 340 338 337 338 337 336 335 334 334 333 332 330 330 332 333 331 329 329 328 327 327 329 329 329 328 327 326
Wind_Speed
31 28 27 30 33 35 38 39 39 39 39 39 40 39 39 38 37 35 34 34 34 33 34 34 32 30 29 29 29 29 29 28 26 24 23 22 19 18 16 15 14 12 10 8 7 7 7 7 8 8 7 7 8 8 8 9 9 8 7 7 7 6 6
25 26 26 29 33 37 40 40 39 39 39 40 40 40 40 39 39 37 35 35 35 34 34 34 34 32 30 30 29 29 29 28 27 26 25 23 21 20 17 15 14 13 11 8 7 6 6 7 7 7 8 9 9 9 9 8 8 8 8 7 7 7 6
20 25 26 31 35 38 39 39 40 40 40 40 40 41 41 41 41 40 37 36 36 36 34 33 34 34 32 31 30 29 29 29 29 29 28 26 24 21 17 16 15 13 11 8 7 6 6 7 7 8 9 10 10 10 9 9 9 8 9 9 9 8 7
18 23 25 29 34 36 37 39 40 40 40 40 41 41 42 42 41 40 39 36 36 37 36 34 34 34 33 32 32 30 29 30 31 31 29 27 24 22 19 17 16 13 10 9 8 7 6 6 7 8 9 9 10 10 10 10 10 10 10 11 11 11 10
22 23 23 25 31 34 36 39 41 40 40 39 40 40 40 40 40 39 39 37 35 36 36 34 33 32 32 32 32 31 30 32 32 32 31 28 24 22 20 18 16 14 11 11 10 7 4 4 6 7 7 8 9 11 11 11 12 12 12 12 12 12 12
22 22 22 25 30 35 37 39 41 41 41 39 39 38 38 39 39 38 38 38 36 34 34 34 33 31 31 32 32 31 31 32 33 33 32 29 25 22 20 19 18 15 13 13 11 8 7 8 9 9 9 10 11 12 13 15 14 13 13 14 14 14 13
18 19 20 24 29 34 37 38 39 40 40 38 37 38 38 38 39 38 37 37 38 35 34 34 34 32 30 31 32 32 32 31 33 34 32 29 27 24 23 22 21 19 18 17 15 13 14 17 19 19 17 15 14 15 16 18 16 13 13 15 15 15 15
20 22 24 26 28 33 35 36 37 37 37 37 37 38 38 38 38 38 37 37 37 37 35 33 33 32 31 31 32 33 33 31 32 34 32 29 28 27 27 26 26 25 23 21 20 20 23 27 29 29 26 22 20 19 19 20 18 15 14 15 16 16 16
23 29 26 24 28 33 32 34 35 36 37 38 38 38 38 38 38 39 38 37 36 37 36 33 31 31 31 31 32 33 34 33 33 34 33 31 31 31 31 30 30 29 27 26 27 29 31 34 36 35 32 28 26 23 22 22 20 17 16 16 16 17 16
19 26 22 22 28 32 29 30 32 34 38 41 41 39 38 38 38 38 38 37 35 36 36 33 31 31 32 32 31 31 34 35 34 35 35 35 35 35 35 35 34 33 32 33 34 36 36 37 39 41 38 33 30 28 25 23 22 21 20 18 16 17 17
14 15 15 18 25 29 27 28 31 35 40 44 44 41 39 39 38 37 37 37 36 34 33 33 33 32 32 32 32 31 33 35 35 36 37 36 36 37 38 38 36 36 38 40 40 39 39 37 39 43 41 37 33 31 29 26 24 23 23 20 17 17 17
3 9 13 16 20 24 26 28 31 35 39 44 46 42 40 40 38 37 37 36 36 33 32 33 34 34 33 32 33 34 35 35 37 38 39 36 37 40 42 40 38 39 42 43 41 41 40 38 39 42 42 39 35 31 30 28 25 25 24 21 18 18 17
7 11 14 17 19 22 26 27 30 34 38 42 44 43 41 40 38 38 37 37 35 33 32 33 35 36 35 35 37 38 36 36 38 40 40 39 42 44 44 42 42 43 45 45 42 42 41 36 33 37 40 40 38 34 32 31 27 26 25 22 21 20 17
12 14 15 16 19 22 26 28 30 33 36 38 40 41 41 39 38 39 38 37 36 34 33 34 36 37 36 37 40 40 38 38 39 40 42 42 45 46 46 45 46 46 46 45 43 43 43 35 28 30 34 37 39 37 34 32 30 27 25 21 21 21 18
19 19 18 18 20 23 24 27 30 32 35 36 38 39 39 38 39 39 39 38 37 35 35 35 36 37 38 41 42 39 38 39 39 40 44 46 46 48 49 48 48 47 46 45 44 46 48 41 31 28 29 30 35 38 35 33 32 30 25 21 21 21 20
21 21 21 19 18 20 22 25 29 32 34 35 37 38 39 39 39 39 38 38 37 36 35 34 36 37 39 42 42 38 37 39 41 43 47 48 47 48 50 48 47 47 46 45 45 46 50 47 37 31 28 27 32 39 38 35 33 32 29 24 21 21 21
22 18 18 18 16 16 19 23 26 30 33 36 39 40 40 39 39 38 37 36 37 37 35 34 35 36 37 38 38 37 40 44 46 46 46 46 44 45 47 45 44 46 46 46 47 47 50 49 41 35 32 31 33 37 39 37 34 33 33 27 21 20 21
20 21 19 15 13 16 20 23 27 30 34 37 39 40 40 40 39 38 37 35 35 36 35 33 34 35 37 40 40 42 45 48 49 47 44 42 40 40 41 41 41 43 43 45 47 47 49 49 44 39 37 38 38 37 38 37 35 34 33 27 22 19 21
20 24 21 13 13 17 21 24 28 31 34 35 37 38 39 39 39 38 36 34 34 34 34 33 32 33 36 41 44 46 47 48 47 45 42 39 37 37 38 38 39 39 41 44 47 48 49 49 46 42 40 41 40 38 36 33 33 33 32 27 23 21 22
25 24 19 13 13 17 21 25 27 29 30 31 33 35 35 35 35 36 34 33 32 33 34 33 32 34 38 41 42 43 43 43 42 39 38 36 34 35 36 37 37 37 39 43 46 49 50 49 46 44 43 43 41 38 34 28 28 30 30 28 26 23 23
25 20 17 15 18 21 23 26 27 28 29 30 31 32 32 32 33 34 33 32 31 33 34 34 34 36 39 38 36 37 37 36 35 32 30 29 28 30 32 34 34 35 37 42 46 50 50 49 46 44 43 42 39 36 31 25 25 28 29 29 27 24 23
25 20 17 17 20 23 24 26 27 28 30 31 31 32 33 33 32 32 32 31 31 33 35 35 34 34 36 34 34 35 34 32 30 28 26 24 24 26 27 28 30 31 34 39 44 46 47 47 45 43 42 40 37 34 28 24 26 29 29 29 26 23 24
27 24 21 19 19 21 23 23 25 27 29 31 32 33 33 32 32 32 32 32 32 33 34 34 34 34 34 33 33 32 31 31 30 27 24 23 23 24 23 23 25 27 29 34 39 38 37 38 38 37 38 36 33 32 27 23 26 28 27 27 25 24 25
23 24 21 18 18 19 21 22 24 26 28 30 31 32 32 31 32 34 34 34 33 34 34 33 32 31 28 27 29 29 28 28 26 24 23 24 24 23 22 23 24 23 24 28 32 29 25 23 26 30 32 29 26 26 24 22 25 27 26 26 25 24 24
19 21 19 17 18 19 21 23 24 26 28 29 29 29 29 30 32 35 35 35 35 35 34 32 31 29 26 26 27 25 22 22 22 23 25 25 25 23 23 23 22 21 22 24 25 24 20 19 22 26 25 21 19 21 20 19 22 25 25 23 22 22 22
17 18 17 17 18 19 21 23 25 27 28 31 31 29 29 30 31 32 33 34 34 33 32 31 30 29 27 25 22 20 20 20 22 25 26 26 25 23 22 21 18 17 19 19 17 17 18 18 19 18 16 16 17 17 15 15 19 23 21 19 18 18 19
15 15 16 16 17 19 21 23 24 24 25 28 30 30 31 32 31 31 32 34 33 31 31 30 27 24 24 23 21 22 22 21 21 25 28 27 24 21 19 18 18 17 17 16 14 15 15 15 13 12 13 15 15 13 12 11 14 18 18 16 16 17 18
14 14 15 16 18 21 21 22 23 23 23 26 29 30 31 31 31 31 31 30 31 31 30 28 26 24 25 25 26 26 23 21 24 28 29 26 23 21 20 20 20 19 17 14 15 16 15 13 12 12 14 14 12 12 11 10 11 15 16 15 15 16 17
14 15 15 17 20 21 22 23 24 25 25 27 29 29 29 31 33 32 29 28 29 31 30 29 28 28 27 28 28 24 20 22 29 31 29 26 25 24 22 20 20 20 18 16 16 16 15 14 14 14 14 13 12 10 10 12 14 15 14 13 13 15 18
13 15 17 19 21 21 24 27 28 27 27 27 27 27 30 34 35 32 28 28 29 30 30 29 29 28 27 27 26 21 19 24 30 29 26 25 23 21 21 21 21 21 19 18 16 14 13 14 14 14 14 13 13 12 12 15 16 13 13 13 14 16 17
16 18 19 21 23 24 26 28 28 27 27 26 27 28 30 33 33 30 27 27 29 31 31 29 27 27 27 26 25 22 22 27 28 25 23 22 21 22 24 25 24 22 21 19 16 13 13 14 13 13 13 13 13 13 14 16 14 12 13 15 15 17 17
20 20 21 22 24 26 26 27 28 28 27 27 27 29 29 29 30 30 29 30 31 31 29 26 25 25 24 21 21 22 24 26 25 23 22 22 22 25 27 25 22 21 20 18 14 13 14 14 13 14 13 13 13 13 13 13 13 12 13 15 16 17 17
23 22 21 23 24 25 25 26 26 26 24 22 22 25 27 26 25 27 29 30 29 27 24 22 23 23 20 17 18 20 21 23 22 21 20 20 19 21 22 21 18 18 17 15 14 14 15 14 14 14 13 13 13 12 12 12 13 13 13 14 15 16 14
22 22 22 23 23 23 23 23 23 23 22 21 19 20 23 24 24 24 25 27 27 27 26 25 23 21 20 19 20 20 20 20 20 19 18 18 18 19 20 19 17 15 15 15 14 14 15 14 14 14 13 13 13 12 12 13 13 13 13 14 14 14 14
22 22 21 21 22 23 22 22 21 21 21 20 18 18 18 19 21 22 23 23 23 24 25 24 22 21 21 21 21 21 20 18 18 19 19 20 22 23 22 21 20 17 16 17 17 16 15 14 13 13 13 12 12 13 14 14 13 13 13 13 13 13 14
20 20 20 19 20 20 20 19 19 18 18 18 16 16 16 16 17 18 19 18 17 17 19 21 21 21 20 20 21 21 20 18 19 20 22 23 25 26 25 23 23 21 18 18 18 17 15 13 13 14 13 11 12 14 14 12 12 13 13 13 13 13 13
18 18 18 18 18 18 17 17 16 15 16 15 15 16 18 18 18 17 17 17 17 18 19 20 21 21 20 19 20 20 19 20 21 21 22 23 24 26 26 24 22 20 17 15 14 14 13 12 13 15 15 13 12 13 12 11 12 13 13 12 12 12 13
17 17 16 16 16 16 15 15 13 13 14 13 14 15 17 17 17 16 14 15 18 20 20 20 21 21 20 21 22 22 22 23 22 21 22 22 21 23 26 24 21 18 15 12 11 11 11 10 12 16 18 16 14 12 11 12 13 12 11 11 12 13 13
Wind_Direction
187 200 207 199 203 208 203 197 193 194 195 195 196 196 197 198 198 200 200 200 201 202 204 206 203 201 202 204 207 210 213 213 212 210 209 208 208 205 202 205 204 193 193 203 200 198 197 196 206 214 223 230 232 233 233 232 230 220 220 228 216 210 214
180 191 202 198 202 208 204 198 193 192 194 194 195 195 196 198 197 198 199 200 201 201 202 203 203 201 201 202 203 205 210 212 212 212 210 209 211 209 203 202 201 197 196 195 191 193 192 196 204 208 219 227 228 230 229 230 230 216 213 228 229 223 219
186 188 197 199 202 208 204 198 194 193 193 193 194 195 196 197 197 196 198 199 201 201 201 201 203 203 203 203 203 204 209 212 213 214 212 210 211 208 202 202 203 202 200 194 191 192 187 193 204 210 220 227 225 225 222 222 227 220 212 219 225 224 225
209 203 205 205 204 206 204 199 196 194 193 194 194 194 195 195 196 196 197 199 200 201 201 201 202 203 204 204 204 203 206 212 215 216 215 211 209 207 200 200 203 199 191 192 197 196 190 196 209 221 230 226 220 222 224 221 225 228 224 222 223 221 224
215 215 213 210 204 204 203 199 198 196 194 195 195 195 194 194 195 196 198 199 200 202 202 202 202 202 204 205 206 204 205 211 216 216 216 212 206 204 200 200 201 193 184 195 204 204 213 231 234 236 234 224 220 223 226 223 222 227 230 229 228 226 227
206 201 206 214 207 203 202 199 198 197 195 194 194 194 193 193 195 197 198 199 200 202 202 202 202 202 203 204 206 205 204 209 214 216 217 213 204 200 200 200 197 188 187 202 208 215 243 261 262 250 233 223 221 221 222 225 228 230 230 231 233 231 231
196 179 194 218 214 205 201 199 200 197 196 194 191 192 192 194 196 197 199 200 201 201 201 202 202 201 202 203 204 206 206 207 213 216 215 211 206 203 200 200 199 194 196 205 209 220 241 252 254 249 239 229 226 226 225 227 234 238 231 232 237 236 236
191 173 188 212 217 213 202 197 199 197 195 193 191 193 193 194 196 196 199 201 200 202 203 202 202 202 203 203 203 207 207 206 210 214 213 210 209 208 206 209 210 207 207 212 218 230 243 248 249 247 241 236 234 234 229 229 236 240 233 233 236 237 239
188 174 187 201 212 220 208 196 197 194 193 193 193 195 194 193 195 196 199 200 200 203 203 201 201 203 206 205 204 207 208 206 208 210 209 207 208 209 211 214 215 214 216 222 229 239 245 248 250 249 245 242 241 238 231 230 235 238 236 237 237 236 238
166 164 185 195 207 219 211 198 196 192 192 195 195 195 195 194 195 196 198 200 201 203 202 200 200 202 206 207 207 208 208 208 207 207 207 207 208 211 212 215 217 217 220 227 236 245 249 251 253 252 248 246 246 242 237 234 236 239 242 241 236 237 240
133 159 190 195 206 215 208 199 196 194 194 196 196 194 194 196 195 195 198 199 200 202 201 199 198 199 202 205 207 208 209 208 204 204 208 206 205 211 215 217 218 218 222 230 238 245 248 252 256 254 250 248 248 247 244 242 240 243 248 244 235 238 242
175 212 216 210 212 210 206 201 197 196 197 197 196 194 194 196 195 195 197 199 200 200 198 196 196 199 199 200 205 208 209 208 204 207 213 206 200 209 217 218 216 220 228 235 240 244 246 251 257 257 253 249 249 250 248 245 242 243 249 243 232 237 243
248 245 232 221 215 208 205 202 199 199 199 197 195 194 195 196 195 196 197 198 200 199 196 194 197 202 201 201 208 209 208 210 210 214 218 210 204 212 219 219 219 225 235 239 241 242 243 247 254 258 256 252 251 253 253 250 245 243 245 240 231 235 242
221 240 238 218 207 207 205 201 200 200 198 196 194 194 196 196 195 197 198 197 198 197 194 194 200 203 200 203 213 213 209 210 211 213 215 211 211 217 222 223 224 230 237 240 242 242 240 242 249 255 257 255 254 253 253 251 247 242 240 237 232 235 240
204 207 216 215 204 202 205 203 202 200 197 195 194 194 194 194 196 198 198 198 198 197 195 197 201 202 199 204 212 213 212 212 208 209 212 213 217 222 226 228 230 233 236 240 243 243 242 242 244 248 255 259 257 253 250 250 248 243 241 237 233 235 239
218 200 201 216 212 200 204 209 204 199 195 193 192 191 190 192 196 197 198 198 197 196 196 197 199 199 200 206 212 214 214 213 209 209 212 216 221 227 230 230 232 234 236 239 243 243 244 243 240 242 251 258 257 254 252 251 250 247 246 242 238 240 242
240 233 223 230 229 208 207 213 206 198 193 191 190 190 190 193 195 196 196 196 196 195 195 196 197 197 199 203 207 209 208 207 209 213 215 219 223 228 231 231 233 235 237 241 244 242 242 242 239 238 245 250 252 254 254 254 252 252 251 249 244 243 245
242 252 249 235 221 213 212 211 206 200 196 193 192 191 192 194 194 194 195 195 195 195 194 194 197 199 201 202 203 205 206 206 209 215 220 224 227 230 232 231 232 235 237 242 244 240 240 242 240 239 243 246 249 253 254 255 255 254 252 248 245 245 246
238 248 250 224 209 219 213 206 206 205 200 197 194 192 193 194 193 192 192 192 192 193 192 192 192 193 196 199 201 205 206 206 211 217 224 230 233 233 231 229 230 234 237 239 239 238 239 241 241 240 242 245 248 250 252 253 254 255 251 245 244 246 245
239 243 243 223 223 231 216 205 208 207 203 199 196 193 192 191 190 188 187 187 188 190 192 190 184 185 193 197 200 205 208 211 218 224 227 230 232 231 229 228 230 233 235 236 236 236 238 239 239 240 243 245 246 248 249 247 246 251 251 246 245 246 245
233 227 223 216 223 225 214 207 206 203 202 200 196 192 189 187 187 184 182 183 184 185 188 185 177 184 196 200 200 205 210 214 218 222 224 226 228 230 230 230 231 232 234 235 235 235 237 237 238 240 242 243 245 248 249 242 237 246 253 251 250 248 244
228 221 219 215 212 211 211 211 206 201 199 196 193 190 187 185 185 183 181 181 180 180 182 181 176 183 196 201 202 205 207 209 212 215 216 217 221 225 228 228 229 232 234 234 234 235 237 238 238 240 243 245 247 250 251 245 243 250 257 256 251 244 241
230 230 229 223 213 211 216 214 204 196 192 189 187 187 186 184 181 178 176 176 175 175 177 177 176 182 192 198 201 203 205 207 208 208 205 205 209 212 214 216 220 224 230 234 234 233 236 238 238 241 246 249 253 255 254 246 246 253 259 256 247 239 240
228 230 227 219 211 208 208 204 196 191 188 186 185 184 182 180 175 172 171 171 171 172 173 173 176 181 185 188 192 197 200 198 195 192 191 193 194 194 196 200 206 211 218 227 231 229 228 232 236 242 249 252 253 255 250 241 243 252 258 255 247 239 241
225 225 221 214 207 201 198 194 189 185 182 180 180 180 178 176 173 170 169 169 169 170 169 170 176 179 179 183 188 189 185 178 175 178 183 184 182 184 189 192 196 203 208 215 222 224 223 227 234 241 246 247 243 244 242 236 241 251 253 250 245 241 242
221 218 214 210 204 195 188 185 181 180 179 177 175 175 174 173 172 169 166 163 164 164 164 169 176 178 176 178 177 173 170 171 174 176 177 177 179 183 188 189 190 196 199 200 206 212 215 220 227 231 233 235 238 241 239 232 236 244 245 241 240 236 233
209 209 208 203 194 183 177 175 176 178 179 176 171 169 168 167 165 164 162 158 157 159 161 167 171 169 167 166 164 165 169 172 174 175 175 176 178 180 183 186 186 186 185 183 187 196 206 213 218 222 225 231 235 236 236 233 234 239 241 240 235 229 228
197 198 195 185 177 171 166 165 168 170 169 165 162 160 160 159 157 156 154 151 152 156 158 160 161 160 161 164 164 166 168 171 174 176 176 175 176 178 181 185 187 185 178 176 182 192 200 204 207 216 221 223 225 226 230 236 236 235 239 241 233 226 230
185 182 173 163 163 163 159 157 157 157 155 155 155 155 155 155 153 150 147 147 151 155 156 157 160 162 163 165 166 166 169 175 177 176 175 175 176 180 182 185 189 187 178 175 186 195 197 196 200 210 216 218 220 217 216 230 239 235 231 229 225 229 239
163 166 163 157 154 151 149 148 146 146 147 148 149 148 149 152 152 149 147 149 155 159 159 160 162 163 163 167 169 167 169 174 175 174 175 176 177 181 185 187 190 189 182 181 188 191 190 192 199 207 210 212 214 210 211 226 236 228 218 224 234 241 242
144 147 146 142 135 129 129 131 130 130 132 134 138 141 145 149 150 146 146 153 161 165 164 164 165 166 170 174 174 169 168 170 171 171 174 177 180 188 194 195 194 191 188 187 188 186 190 197 200 202 203 205 208 209 215 227 231 221 219 228 236 237 232
117 122 127 127 123 119 118 119 122 124 126 131 139 143 144 146 149 152 156 160 164 167 167 168 170 173 176 177 173 169 167 166 166 168 173 179 186 195 199 197 194 194 193 191 190 192 196 198 196 197 200 203 206 206 210 219 224 224 228 230 227 226 225
100 105 111 112 114 116 115 114 116 118 118 122 134 143 145 147 151 156 160 163 165 167 169 171 174 176 176 171 168 168 166 163 163 166 170 173 180 192 197 193 188 192 195 193 192 196 197 195 195 198 202 206 209 208 206 211 214 218 227 228 222 220 224
92 94 96 98 102 107 109 109 111 113 115 117 125 141 153 158 160 161 164 168 171 173 173 171 169 170 170 168 169 172 170 164 161 162 164 167 174 184 190 189 187 190 194 192 193 195 196 197 201 205 208 212 214 212 211 213 213 210 212 218 222 224 227
87 88 88 90 95 101 106 111 116 120 125 128 132 141 149 153 157 160 161 163 166 170 169 164 160 160 164 166 170 174 172 165 161 161 165 173 180 184 186 187 187 189 191 192 195 197 198 202 207 209 212 218 220 214 211 211 211 208 211 223 234 235 232
83 85 85 87 91 97 103 110 116 121 123 123 129 134 132 130 137 145 149 151 156 163 162 156 154 158 162 164 167 170 168 163 163 167 172 180 186 187 187 188 189 190 192 194 196 198 201 207 211 208 209 215 214 209 209 212 217 223 230 239 243 239 236
74 79 83 85 86 89 95 101 108 116 117 118 124 125 120 121 127 133 141 150 159 166 165 158 156 158 158 160 164 166 163 162 165 169 174 181 187 189 190 191 191 193 198 201 203 206 213 220 215 204 204 210 207 204 211 220 225 231 237 239 237 232 223
75 76 78 82 84 85 87 87 91 101 109 120 131 131 127 129 130 130 138 152 160 164 165 161 159 158 159 163 164 162 161 165 169 171 175 179 184 188 190 192 194 199 207 213 215 218 225 227 212 199 200 209 211 210 218 223 223 228 233 231 229 225 217